Location: Asheville, NC
(35.6000°N, 82.5500°W)
Time: 09:15:49

UWE-3 - Pass Details

Date: 09 March 2018
Orbit: 585 x 685 km, 97.6° (Epoch: 19 March)

Event Time Altitude Azimuth Distance (km) Brightness Sun altitude
Rises 18:55:48 0° 155° (SSE) 2,984 ? -5.5°
Reaches altitude 10° 18:58:04 10° 151° (SSE) 2,062 ? -6.0°
Maximum altitude 19:02:26 52° 75° (ENE) 799 ? -6.9°
Drops below altitude 10° 19:06:43 10° 359° (N) 2,015 ? -7.7°
Sets 19:08:55 0° 355° (N) 2,910 ? -8.2°
